Simultaneous Nadir Overpasses (SNOs) Predictions

Prediction of SNOs between METOP-B and TERRA Satellite Orbit:

Table of predicted SNOs for the next 14.0 days since TLE Epoch: 2/22/2013
Index Date (METOP-B) Time (METOP-B) Lat,Lon (METOP-B) SZA (METOP-B ) Date (TERRA) Time (TERRA) Lat,Lon (TERRA) SZA (TERRA ) Distance(km) Time Diff (sec)
1 02/24/2013 10:53:16 81.28, 63.33 92.90 02/24/2013 10:54:09 81.28, 63.22 92.91 1.88 53
2 02/24/2013 11:43:56 -81.28,-129.24 87.11 02/24/2013 11:43:36 -81.28,-129.21 87.12 0.62 20
3 02/27/2013 06:27:40 81.28, 129.53 91.84 02/27/2013 06:28:26 81.28, 129.58 91.87 0.94 46
4 02/27/2013 07:18:20 -81.28, -63.00 88.16 02/27/2013 07:17:53 -81.28, -62.83 88.16 2.87 27
5 03/02/2013 02:02:03 81.27,-164.31 90.76 03/02/2013 02:02:42 81.27,-164.13 90.80 2.97 39
6 03/02/2013 02:52:41 -81.29, 3.99 89.14 03/02/2013 02:52:08 -81.29, 3.85 89.17 2.37 33
7 03/04/2013 21:36:25 81.28, -97.40 89.76 03/04/2013 21:36:58 81.28, -97.54 89.76 2.36 33
8 03/04/2013 22:27:05 -81.28, 70.17 90.23 03/04/2013 22:26:25 -81.28, 70.09 90.26 1.51 40
9 03/07/2013 17:10:48 81.28, -30.92 88.70 03/07/2013 17:11:14 81.28, -31.02 88.71 1.76 26




NCC Satellite Simultaneous Nadir Overpasses (SNOs) Prediction Service
